[[{"header":{"parameterUnit":"m.s-1","parameterCategory":2,"la1":30.2991,"la2":30.254,"lo1":-89.0895,"lo2":-89.0444,"dy":0.0017,"dx":0.0017,"nx":28,"ny":28,"refTime":"2024-02-19T09:00:00:Z","depth":"0","parameterNumber":2,"parameterNumberName":"U-component_of_CURRENTS"},"data":[0,0,0,0,0,0,0,0,0,0,0,0,0,0,0,0,0,0,0,0,0,0,0,0,0,0,0,0,0,0,0,0,0,0,0,0,0,0,0,0,0,0,0,0,0,0,0,0,0,0,0,0,0,0,0,0,0,0,0.3198,0.3199,0,0.3211,0.3211,0.3211,0.3193,0.3193,0.3193,0.3192,0.317,0.317,0.317,0,0,0,0,0,0,0,0,0,0,0,0,0,0.3164,0.3164,0.3198,0.3199,0.3199,0.3211,0.3211,0.3211,0.3194,0.3193,0.3192,0.3192,0.3171,0.317,0.317,0,0,0,0,0,0,0,0,0,0,0,0,0,0.3176,0.3164,0.3198,0.3193,0.3193,0.3211,0.3211,0.3211,0.3194,0.3193,0.3192,0.3192,0.3171,0.317,0.317,0.3182,0,0,0.3169,0.3169,0,0,0,0,0,0,0,0,0.3175,0.3177,0.3194,0.3194,0.3193,0.3201,0.3191,0.32,0.3194,0.3191,0.3192,0.3191,0.3179,0.3178,0.318,0.3181,0.318,0.3169,0.3169,0.3169,0.3169,0,0,0,0,0,0,0,0.3174,0.3176,0.3201,0.3194,0.3194,0.3192,0.3192,0.3192,0.3187,0.3192,0.3191,0.3195,0.3179,0.318,0.3179,0.318,0.3169,0.3169,0.3169,0.3169,0.3221,0.3223,0,0,0,0,0,0,0.3177,0.3176,0.3201,0.3202,0.3185,0.3193,0.3194,0.3198,0.3188,0.3186,0.3196,0.3195,0.3181,0.318,0.3178,0.3213,0.3169,0.3169,0.3169,0.322,0.3222,0.3223,0,0,0,0,0,0,0.3176,0.3179,0.3201,0.319,0.3193,0.3194,0.3199,0.3199,0.3205,0.3192,0.3189,0.3203,0.3181,0.3179,0.3191,0.3211,0.3169,0.3169,0.3218,0.322,0.3223,0.3269,0,0,0,0,0,0,0.3175,0.3179,0.3183,0.3191,0.3194,0.3218,0.32,0.3199,0.3209,0.3208,0.3197,0.3194,0.318,0.3192,0.3191,0.321,0.3168,0.3216,0.3219,0.3222,0.3265,0.3272,0.3278,0,0,0,0,0,0.3174,0.318,0.3183,0.3186,0.3199,0.3219,0.3221,0.3218,0.3211,0.322,0.3216,0.3195,0.3209,0.3193,0.3191,0.3211,0.3215,0.3218,0.3222,0.3262,0.3271,0.3278,0,0,0,0,0,0,0.3163,0.3179,0.3182,0.3192,0.321,0.3217,0.3224,0.3226,0.323,0.3228,0.3212,0.3209,0.3232,0.3219,0.3201,0.3237,0.321,0.3213,0.3242,0.325,0.3256,0.3275,0.3168,0,0,0,0,0,0.3165,0.3173,0.3193,0.3201,0.3212,0.3222,0.3229,0.3233,0.3239,0.324,0.3233,0.3233,0.3246,0.3244,0.3252,0.3265,0.3279,0.328,0.3286,0.3292,0.3309,0.335,0.3362,0.3235,0.3235,0.3235,0,0,0.3161,0.3172,0.3176,0.3199,0.3211,0.3235,0.3224,0.3243,0.3263,0.3237,0.3257,0.3259,0.3259,0.328,0.3288,0.3268,0.3337,0.3296,0.3301,0.3315,0.3355,0.3368,0.3379,0.3237,0.3237,0.3236,0,0,0.3161,0.3172,0.3183,0.3204,0.3231,0.3245,0.3255,0.3273,0.3282,0.3301,0.3299,0.3319,0.3316,0.3332,0.3337,0.3387,0.3377,0.3383,0.3421,0.3461,0.3472,0.3481,0.3518,0.353,0.3377,0.3377,0.3377,0,0.3156,0.3175,0.319,0.3213,0.3234,0.3253,0.328,0.3298,0.3316,0.3332,0.3311,0.335,0.3346,0.3394,0.3411,0.3402,0.342,0.3386,0.3469,0.3479,0.3488,0.3523,0.3536,0.3379,0.3379,0.3379,0.3379,0,0.3171,0.319,0.3202,0.3239,0.3266,0.3291,0.3327,0.3349,0.3357,0.3375,0.3418,0.3423,0.3446,0.3449,0.3441,0.351,0.3501,0.3479,0.3447,0.3504,0.3537,0.355,0.3383,0.3382,0.3381,0.3381,0,0,0.314,0.3201,0.3202,0.3219,0.3284,0.3295,0.3352,0.34,0.3436,0.345,0.3496,0.3523,0.3531,0.354,0.3542,0.3573,0.3651,0.3554,0.3555,0.3587,0.3743,0.3721,0.3733,0.3639,0.3641,0.3643,0.3741,0,0.3147,0.3182,0.3224,0.326,0.3281,0.3332,0.3379,0.3426,0.3471,0.352,0.3545,0.3589,0.3565,0.3585,0.3616,0.3653,0.3687,0.3627,0.3686,0.3689,0.366,0.3748,0.3621,0.3696,0.3753,0.3755,0.3757,0,0.3142,0.3167,0.3207,0.3261,0.3277,0.3308,0.3387,0.3437,0.3529,0.357,0.363,0.3656,0.3728,0.3687,0.3778,0.374,0.3752,0.3766,0.3769,0.3744,0.3692,0.3649,0.3717,0.3625,0.3777,0.3775,0.3774,0,0.3086,0.3146,0.3173,0.3194,0.3269,0.3296,0.3342,0.3441,0.3506,0.3617,0.3672,0.3749,0.3799,0.3833,0.3867,0.3831,0.3958,0.3905,0.3897,0.3895,0.3799,0.3784,0.3782,0.3968,0.3968,0.3968,0.3968,0,0.3068,0.3079,0.3141,0.3149,0.3187,0.3253,0.3325,0.3394,0.3521,0.3598,0.3691,0.3768,0.3839,0.391,0.3915,0.3966,0.4,0.3938,0.3932,0.3811,0.3797,0.372,0.3673,0.3971,0.3971,0.397,0.3969,0,0.3004,0.3048,0.3073,0.314,0.3162,0.3186,0.3311,0.3366,0.3498,0.361,0.365,0.3812,0.3916,0.3977,0.4058,0.4035,0.3969,0.4072,0.393,0.3906,0.3791,0.3752,0.3633,0.3524,0.4085,0.4085,0.4085,0,0.2976,0.2983,0.3047,0.3063,0.3094,0.3152,0.3198,0.334,0.3419,0.362,0.3664,0.3825,0.3918,0.4062,0.4073,0.4115,0.3977,0.4001,0.3907,0.3801,0.3753,0.3593,0.3498,0.3797,0.3795,0.3794,0.3792,0,0.2923,0.2949,0.2972,0.3005,0.3041,0.309,0.3168,0.3228,0.339,0.3501,0.3644,0.3742,0.3915,0.3938,0.4022,0.4014,0.3817,0.3966,0.3889,0.3574,0.3366,0.3252,0.3719,0.3776,0.3778,0.3779,0.378,0.3781,0.288,0.2883,0.2912,0.2932,0.297,0.299,0.2989,0.3096,0.3197,0.3309,0.3508,0.36,0.3757,0.3877,0.3858,0.376,0.3719,0.3642,0.362,0.348,0.3317,0.3762,0.3789,0.379,0.3792,0.3793,0.3794,0,0.2805,0.2813,0.2833,0.2836,0.2818,0.2878,0.2931,0.2909,0.2952,0.3128,0.3245,0.3398,0.3453,0.3538,0.3557,0.3443,0.3255,0.3334,0.3072,0.3008,0.3445,0.3375,0.3272,0.3272,0.3272,0.3272,0.3272,0.3272,0.2765,0.274,0.2742,0.2671,0.2668,0.2598,0.259,0.2595,0.2678,0.2757,0.2849,0.3003,0.325,0.3357,0.3275,0.3189,0.2931,0.2797,0.2777,0.3095,0.312,0.3144,0.3068,0.2902,0.2902,0.2204,0.2199,0.2195]},{"header":{"parameterUnit":"m.s-1","parameterCategory":2,"la1":30.2991,"la2":30.254,"lo1":-89.0895,"lo2":-89.0444,"dy":0.0017,"dx":0.0017,"nx":28,"ny":28,"refTime":"2024-02-19T09:00:00:Z","depth":"0","parameterNumber":3,"parameterNumberName":"V-component_of_CURRENTS"},"data":[0,0,0,0,0,0,0,0,0,0,0,0,0,0,0,0,0,0,0,0,0,0,0,0,0,0,0,0,0,0,0,0,0,0,0,0,0,0,0,0,0,0,0,0,0,0,0,0,0,0,0,0,0,0,0,0,0,0,0.0019,0.0018,0,-0.0037,-0.0037,-0.0038,-0.0081,-0.0081,-0.0081,-0.0081,-0.0154,-0.0156,-0.0158,0,0,0,0,0,0,0,0,0,0,0,0,0,0.0027,0.0027,0.0019,0.0018,0.0018,-0.0036,-0.0037,-0.0038,-0.0081,-0.0081,-0.0081,-0.0081,-0.0154,-0.0156,-0.0158,0,0,0,0,0,0,0,0,0,0,0,0,0,0.0001,0.0027,0.0019,-0.0008,-0.0011,-0.0036,-0.0037,-0.0039,-0.0081,-0.0081,-0.0081,-0.0082,-0.0153,-0.0156,-0.0158,-0.0168,0,0,-0.0166,-0.0167,0,0,0,0,0,0,0,0,0.0002,0.0,-0.0004,-0.0006,-0.001,-0.005,-0.0061,-0.0082,-0.0081,-0.0057,-0.0081,-0.0082,-0.0119,-0.0125,-0.0138,-0.0172,-0.0175,-0.0167,-0.0168,-0.0169,-0.017,0,0,0,0,0,0,0,0.0004,0.0002,-0.0005,-0.0004,-0.0008,-0.0038,-0.0042,-0.0066,-0.0088,-0.0059,-0.0061,-0.0064,-0.0122,-0.0135,-0.014,-0.0176,-0.0166,-0.0169,-0.017,-0.0171,-0.0226,-0.0226,0,0,0,0,0,0,0.0019,0.0004,-0.0004,-0.0007,-0.0002,-0.0038,-0.0042,-0.0039,-0.0087,-0.0094,-0.0064,-0.0066,-0.013,-0.0136,-0.0142,-0.0141,-0.0169,-0.0172,-0.0173,-0.0226,-0.0226,-0.0226,0,0,0,0,0,0,0.002,0.0019,-0.0001,-0.0001,-0.0006,-0.0037,-0.0033,-0.004,-0.0048,-0.009,-0.0098,-0.0065,-0.0131,-0.0139,-0.0157,-0.0144,-0.0173,-0.0175,-0.0226,-0.0226,-0.0226,-0.0148,0,0,0,0,0,0,0.002,0.002,0.0026,0.0,-0.0005,-0.0006,-0.0033,-0.004,-0.0049,-0.0052,-0.0094,-0.0101,-0.0132,-0.0153,-0.016,-0.0149,-0.0177,-0.0226,-0.0226,-0.0226,-0.0151,-0.0145,-0.0141,0,0,0,0,0,0.0021,0.0037,0.0027,0.0026,0.0005,-0.0005,-0.001,-0.0036,-0.0048,-0.0046,-0.0076,-0.01,-0.0156,-0.0154,-0.0163,-0.0152,-0.0226,-0.0226,-0.0226,-0.0153,-0.0146,-0.0141,0,0,0,0,0,0,0.0043,0.0033,0.0022,0.0033,0.0019,-0.0011,-0.0011,-0.0028,-0.0051,-0.0053,-0.0096,-0.0105,-0.0119,-0.0147,-0.0144,-0.0169,-0.0196,-0.0197,-0.0138,-0.0132,-0.0127,-0.0102,-0.018,0,0,0,0,0,0.0052,0.0061,0.0043,0.0051,0.0047,0.0019,0.0011,-0.0002,-0.0025,-0.0035,-0.0066,-0.0099,-0.0125,-0.0136,-0.0166,-0.0175,-0.0206,-0.0176,-0.0171,-0.0166,-0.0152,-0.019,-0.0187,-0.0225,-0.0225,-0.0225,0,0,0.0063,0.0058,0.0062,0.0056,0.0041,0.0051,0.0013,0.0012,0.0018,-0.0039,-0.0044,-0.0082,-0.0124,-0.0137,-0.0145,-0.0157,-0.0173,-0.0165,-0.0161,-0.0149,-0.0189,-0.0186,-0.0182,-0.0224,-0.0224,-0.0224,0,0,0.0093,0.0085,0.0104,0.0099,0.009,0.0077,0.0082,0.0058,0.0044,0.0034,-0.0006,-0.0032,-0.0073,-0.0099,-0.0117,-0.0101,-0.0145,-0.0115,-0.0064,-0.0101,-0.0098,-0.0096,-0.0132,-0.0133,-0.011,-0.011,-0.011,0,0.0105,0.0131,0.0106,0.0124,0.0132,0.0096,0.0123,0.0104,0.0076,0.0072,0.0044,-0.0014,-0.0053,-0.0063,-0.006,-0.0087,-0.0117,-0.0081,-0.0093,-0.0091,-0.009,-0.0128,-0.013,-0.0106,-0.0107,-0.0107,-0.0107,0,0.0152,0.0172,0.0183,0.0198,0.02,0.0218,0.0197,0.0191,0.0168,0.0149,0.0126,0.0065,0.0035,0.0012,-0.0018,-0.0026,-0.0054,-0.0082,-0.0103,-0.0081,-0.0123,-0.0127,-0.0101,-0.0102,-0.0103,-0.0104,0,0,0.0191,0.0214,0.022,0.0243,0.0246,0.0257,0.0266,0.027,0.0287,0.0234,0.0244,0.0182,0.0145,0.0121,0.007,0.0035,0.0011,-0.0012,-0.0016,-0.0037,-0.0071,-0.0072,-0.0078,-0.0021,-0.0021,-0.0021,-0.0104,0,0.0239,0.0297,0.0293,0.0349,0.038,0.0357,0.0371,0.0365,0.035,0.0346,0.0274,0.026,0.0187,0.0175,0.0128,0.0046,0.0004,0.0036,-0.0098,-0.0102,-0.0097,-0.0081,-0.0047,-0.0116,-0.0108,-0.0109,-0.0109,0,0.0295,0.033,0.0394,0.0436,0.0446,0.0467,0.0497,0.051,0.049,0.0475,0.0441,0.0382,0.0327,0.0257,0.0126,0.015,0.0051,-0.0025,-0.0031,-0.0058,-0.011,-0.0138,-0.0124,-0.0301,-0.0116,-0.0115,-0.0115,0,0.035,0.0405,0.0463,0.0478,0.0511,0.0529,0.0547,0.0549,0.0586,0.0563,0.058,0.0488,0.0458,0.032,0.0163,0.0143,0.0017,-0.0035,-0.0134,-0.0136,-0.0145,-0.0147,-0.0305,-0.0131,-0.013,-0.013,-0.013,0,0.0414,0.0459,0.0491,0.0523,0.0596,0.0592,0.0668,0.0666,0.0695,0.0755,0.0654,0.0676,0.0473,0.0373,0.0206,0.0039,0.0045,-0.0115,-0.0152,-0.0118,-0.0116,-0.0302,-0.0398,-0.0133,-0.0133,-0.0132,-0.0132,0,0.0466,0.0484,0.0557,0.0603,0.0623,0.0677,0.0761,0.0821,0.0825,0.0899,0.0897,0.0825,0.0697,0.0487,0.0275,0.0115,-0.0155,-0.0127,-0.007,-0.0098,-0.0358,-0.045,-0.064,-0.071,-0.0253,-0.0253,-0.0253,0,0.0497,0.054,0.0621,0.0673,0.0697,0.078,0.0843,0.0885,0.0968,0.1001,0.1049,0.0948,0.0917,0.0608,0.0305,0.0018,-0.0162,-0.0153,-0.019,-0.0357,-0.0489,-0.0563,-0.0613,-0.0182,-0.0181,-0.0181,-0.0181,0,0.0563,0.0588,0.0648,0.0758,0.0835,0.0943,0.1039,0.1125,0.1181,0.1245,0.1313,0.1288,0.0998,0.0734,0.0333,0.013,-0.0261,-0.0158,-0.035,-0.0453,-0.0526,-0.0614,-0.0149,-0.0179,-0.0179,-0.0179,-0.018,-0.018,0.061,0.0667,0.0746,0.0853,0.0954,0.1089,0.119,0.131,0.1451,0.1562,0.1525,0.1536,0.113,0.0604,0.0293,-0.0247,-0.0267,-0.0417,-0.0518,-0.058,-0.0638,-0.0161,-0.022,-0.022,-0.0221,-0.0221,-0.0221,0,0.0673,0.0736,0.0837,0.0967,0.109,0.1133,0.1312,0.1428,0.1605,0.1722,0.1793,0.1619,0.1122,0.0595,-0.0143,-0.0539,-0.0674,-0.0755,-0.0865,-0.0903,-0.0495,-0.0481,-0.0574,-0.0574,-0.0574,-0.0573,-0.0573,-0.0573,0.0706,0.0808,0.0861,0.1059,0.1157,0.1331,0.144,0.1613,0.1749,0.1907,0.1942,0.1939,0.1532,0.0198,-0.0717,-0.0921,-0.1182,-0.1238,-0.139,-0.1129,-0.1106,-0.1084,-0.1095,-0.1315,-0.1316,-0.1734,-0.1739,-0.1742]}],[{"header":{"parameterUnit":"m.s-1","parameterCategory":2,"la1":30.2991,"la2":30.254,"lo1":-89.0895,"lo2":-89.0444,"dy":0.0017,"dx":0.0017,"nx":28,"ny":28,"refTime":"2024-02-19T09:00:00:Z","depth":"2","parameterNumber":2,"parameterNumberName":"U-component_of_CURRENTS"},"data":[0,0,0,0,0,0,0,0,0,0,0,0,0,0,0,0,0,0,0,0,0,0,0,0,0,0,0,0,0,0,0,0,0,0,0,0,0,0,0,0,0,0,0,0,0,0,0,0,0,0,0,0,0,0,0,0,0,0,0.2828,0.2828,0,0.2847,0.2847,0.2847,0.2843,0.2843,0.2843,0.2842,0.2842,0.2843,0.2843,0,0,0,0,0,0,0,0,0,0,0,0,0,0.2786,0.2787,0.2828,0.2828,0.2829,0.2847,0.2847,0.2847,0.2843,0.2843,0.2843,0.2842,0.2842,0.2843,0.2843,0,0,0,0,0,0,0,0,0,0,0,0,0,0.2803,0.2787,0.2828,0.283,0.2831,0.2847,0.2847,0.2847,0.2843,0.2843,0.2843,0.2842,0.2842,0.2843,0.2843,0.2851,0,0,0.2844,0.2844,0,0,0,0,0,0,0,0,0.2802,0.2804,0.2829,0.283,0.2831,0.2844,0.2832,0.2848,0.2843,0.2837,0.2842,0.2842,0.2842,0.2843,0.2845,0.2851,0.2851,0.2844,0.2844,0.2844,0.2844,0,0,0,0,0,0,0,0.2801,0.2804,0.2834,0.283,0.2831,0.283,0.2831,0.2835,0.2839,0.2837,0.2837,0.2842,0.2842,0.2845,0.2845,0.2851,0.2844,0.2844,0.2844,0.2844,0.2911,0.2912,0,0,0,0,0,0,0.2803,0.2803,0.2833,0.2835,0.2817,0.2831,0.2833,0.2838,0.284,0.284,0.2842,0.2842,0.2844,0.2844,0.2845,0.2891,0.2844,0.2844,0.2844,0.2909,0.2911,0.2913,0,0,0,0,0,0,0.2802,0.2805,0.2832,0.282,0.2824,0.2832,0.2838,0.2839,0.2853,0.2844,0.2844,0.2857,0.2844,0.2844,0.2865,0.289,0.2844,0.2845,0.2907,0.291,0.2912,0.296,0,0,0,0,0,0,0.28,0.2805,0.2812,0.282,0.2825,0.2853,0.2839,0.284,0.2856,0.2856,0.2856,0.2855,0.2844,0.2865,0.2865,0.2889,0.2845,0.2905,0.2909,0.2911,0.2956,0.2964,0.297,0,0,0,0,0,0.2799,0.2807,0.2812,0.2816,0.2834,0.2854,0.2856,0.2859,0.2857,0.2869,0.2873,0.2856,0.2884,0.2866,0.2866,0.2891,0.2904,0.2908,0.2911,0.2953,0.2962,0.297,0,0,0,0,0,0,0.279,0.2808,0.2814,0.2827,0.2846,0.2854,0.2865,0.2869,0.2882,0.2884,0.2873,0.2873,0.2904,0.2893,0.2874,0.2921,0.2893,0.2897,0.2925,0.2933,0.294,0.2956,0.2845,0,0,0,0,0,0.2794,0.2806,0.2825,0.2837,0.2849,0.2861,0.2871,0.2878,0.2888,0.2894,0.2894,0.2901,0.2918,0.2922,0.2933,0.2953,0.2963,0.2972,0.2978,0.2984,0.2999,0.3037,0.3048,0.2925,0.2925,0.2925,0,0,0.2793,0.2805,0.2811,0.2836,0.285,0.2874,0.2866,0.289,0.2912,0.2892,0.2921,0.2928,0.2932,0.296,0.2972,0.2952,0.3026,0.2989,0.2993,0.3006,0.3042,0.3054,0.3064,0.2927,0.2927,0.2926,0,0,0.2797,0.2812,0.2826,0.2847,0.2876,0.2889,0.2901,0.2923,0.2937,0.2963,0.2965,0.299,0.2999,0.3016,0.3022,0.3075,0.3066,0.3077,0.3116,0.3152,0.3162,0.3171,0.3203,0.3214,0.3072,0.3072,0.3073,0,0.2796,0.2817,0.2834,0.2857,0.2879,0.29,0.2927,0.2948,0.2973,0.2992,0.2978,0.3027,0.3028,0.3077,0.3098,0.3091,0.3108,0.308,0.3161,0.317,0.3178,0.3208,0.322,0.3075,0.3075,0.3075,0.3074,0,0.2812,0.2835,0.2848,0.2886,0.2913,0.2941,0.2977,0.3003,0.3019,0.3038,0.309,0.31,0.3129,0.3135,0.3131,0.3199,0.3191,0.3169,0.3137,0.3194,0.3222,0.3233,0.3079,0.3078,0.3077,0.3077,0,0,0.2787,0.2848,0.2852,0.2869,0.2933,0.2946,0.3005,0.3054,0.3091,0.3115,0.3164,0.3199,0.3212,0.3223,0.3229,0.3259,0.3334,0.3244,0.3244,0.3271,0.3418,0.3376,0.3384,0.3325,0.3327,0.3329,0.3414,0,0.2795,0.2832,0.2873,0.2912,0.2933,0.2985,0.3033,0.3081,0.313,0.3183,0.3213,0.3263,0.3244,0.327,0.33,0.3335,0.3368,0.3313,0.3363,0.3365,0.3317,0.3397,0.313,0.3181,0.3425,0.3427,0.3429,0,0.2793,0.2818,0.286,0.2915,0.2932,0.2966,0.3046,0.3097,0.319,0.3233,0.3297,0.3327,0.34,0.3365,0.345,0.3417,0.3429,0.3441,0.3444,0.3398,0.3345,0.3164,0.3193,0.3448,0.3447,0.3445,0.3444,0,0.2741,0.2802,0.2831,0.2852,0.2928,0.2959,0.3008,0.3106,0.317,0.3283,0.3339,0.3415,0.3468,0.3501,0.3532,0.3502,0.3614,0.3567,0.3539,0.3536,0.3316,0.329,0.3626,0.3626,0.3625,0.3625,0.3625,0,0.2723,0.2739,0.2805,0.2815,0.2857,0.2924,0.2998,0.3067,0.3192,0.3267,0.3362,0.3434,0.3506,0.357,0.3576,0.3608,0.365,0.3575,0.3566,0.3326,0.3301,0.3531,0.3519,0.3628,0.3628,0.3627,0.3626,0,0.2664,0.271,0.2737,0.2809,0.2834,0.2863,0.299,0.3043,0.3175,0.3284,0.3327,0.3478,0.3568,0.3625,0.3698,0.3667,0.3695,0.3687,0.3406,0.3363,0.3579,0.3569,0.3673,0.3672,0.3672,0.3671,0.3671,0,0.2637,0.2647,0.2716,0.2735,0.2771,0.2835,0.2883,0.3022,0.3098,0.3292,0.3334,0.3482,0.355,0.3665,0.3653,0.3675,0.3714,0.343,0.3324,0.3609,0.359,0.358,0.3571,0.3048,0.3043,0.3039,0.3035,0,0.2586,0.2616,0.264,0.268,0.2722,0.277,0.2853,0.291,0.3069,0.3168,0.3292,0.3369,0.3497,0.342,0.3475,0.3439,0.3407,0.3343,0.3718,0.3087,0.303,0.3008,0.3017,0.2996,0.3,0.3003,0.3005,0.3006,0.2546,0.2549,0.2583,0.2609,0.2652,0.2674,0.2674,0.2776,0.2865,0.2962,0.3131,0.3151,0.3219,0.3174,0.3092,0.3029,0.3254,0.3095,0.3105,0.312,0.3041,0.2987,0.2931,0.2934,0.2937,0.294,0.2942,0,0.2474,0.2483,0.2506,0.2516,0.2503,0.2568,0.262,0.2593,0.2624,0.2754,0.2835,0.2668,0.2652,0.2699,0.2558,0.258,0.2504,0.2464,0.2334,0.2378,0.2416,0.2295,0.199,0.1987,0.1983,0.198,0,0,0.2435,0.241,0.2412,0.2352,0.2361,0.2301,0.2295,0.2288,0.2335,0.2324,0.2328,0.2538,0.2642,0.2282,0.2255,0.209,0.22,0.2007,0.2782,0.2674,0.2706,0.281,0.2681,0,0,0,0,0]},{"header":{"parameterUnit":"m.s-1","parameterCategory":2,"la1":30.2991,"la2":30.254,"lo1":-89.0895,"lo2":-89.0444,"dy":0.0017,"dx":0.0017,"nx":28,"ny":28,"refTime":"2024-02-19T09:00:00:Z","depth":"2","parameterNumber":3,"parameterNumberName":"V-component_of_CURRENTS"},"data":[0,0,0,0,0,0,0,0,0,0,0,0,0,0,0,0,0,0,0,0,0,0,0,0,0,0,0,0,0,0,0,0,0,0,0,0,0,0,0,0,0,0,0,0,0,0,0,0,0,0,0,0,0,0,0,0,0,0,0.0187,0.0186,0,0.0137,0.0136,0.0136,0.0097,0.0097,0.0097,0.0096,0.003,0.0028,0.0026,0,0,0,0,0,0,0,0,0,0,0,0,0,0.0195,0.0195,0.0187,0.0186,0.0186,0.0137,0.0136,0.0136,0.0097,0.0097,0.0097,0.0096,0.003,0.0028,0.0026,0,0,0,0,0,0,0,0,0,0,0,0,0,0.0172,0.0195,0.0187,0.0162,0.0159,0.0137,0.0136,0.0135,0.0097,0.0097,0.0097,0.0096,0.0031,0.0028,0.0026,0.0018,0,0,0.0019,0.0018,0,0,0,0,0,0,0,0,0.0173,0.0171,0.0166,0.0164,0.0161,0.0124,0.0115,0.0096,0.0097,0.0119,0.0096,0.0096,0.0061,0.0056,0.0046,0.0015,0.0012,0.0019,0.0017,0.0016,0.0016,0,0,0,0,0,0,0,0.0175,0.0173,0.0166,0.0166,0.0162,0.0135,0.0132,0.0111,0.0091,0.0117,0.0115,0.0112,0.0059,0.0048,0.0044,0.0011,0.0019,0.0017,0.0015,0.0014,-0.0036,-0.0036,0,0,0,0,0,0,0.0187,0.0175,0.0167,0.0164,0.0168,0.0136,0.0132,0.0135,0.0092,0.0085,0.0112,0.011,0.0052,0.0046,0.0041,0.0041,0.0016,0.0014,0.0013,-0.0036,-0.0036,-0.0036,0,0,0,0,0,0,0.0188,0.0188,0.0169,0.0169,0.0165,0.0136,0.014,0.0134,0.0126,0.0088,0.0081,0.011,0.0052,0.0044,0.0027,0.0037,0.0013,0.0011,-0.0036,-0.0036,-0.0036,0.0033,0,0,0,0,0,0,0.0189,0.0188,0.0194,0.017,0.0166,0.0165,0.014,0.0134,0.0125,0.0122,0.0084,0.0077,0.0051,0.0031,0.0025,0.0034,0.0009,-0.0036,-0.0036,-0.0036,0.003,0.0035,0.0039,0,0,0,0,0,0.0189,0.0203,0.0195,0.0193,0.0175,0.0165,0.016,0.0137,0.0126,0.0127,0.01,0.0079,0.0027,0.003,0.0022,0.0031,-0.0036,-0.0036,-0.0036,0.0028,0.0034,0.0039,0,0,0,0,0,0,0.0209,0.02,0.019,0.02,0.0187,0.016,0.0159,0.0143,0.0123,0.0121,0.0082,0.0074,0.0061,0.0035,0.0038,0.0015,-0.0009,-0.001,0.0042,0.0047,0.0052,0.0074,0.0007,0,0,0,0,0,0.0218,0.0225,0.0208,0.0216,0.0212,0.0186,0.0179,0.0166,0.0145,0.0136,0.0107,0.0078,0.0055,0.0044,0.0018,0.0009,-0.002,0.0007,0.0012,0.0016,0.0028,-0.0011,-0.0009,-0.0035,-0.0035,-0.0035,0,0,0.0227,0.0223,0.0227,0.022,0.0207,0.0215,0.0181,0.0178,0.0184,0.0132,0.0127,0.0093,0.0056,0.0044,0.0036,0.0025,0.0007,0.0016,0.002,0.0031,-0.0011,-0.0008,-0.0006,-0.0035,-0.0035,-0.0035,0,0,0.0254,0.0247,0.0264,0.0259,0.0249,0.0238,0.0241,0.0218,0.0205,0.0196,0.016,0.0135,0.0099,0.0075,0.0059,0.0072,0.0031,0.006,0.0104,0.0065,0.0067,0.0069,0.0034,0.0031,0.0064,0.0064,0.0064,0,0.0265,0.0289,0.0266,0.0281,0.0288,0.0254,0.0278,0.026,0.0234,0.023,0.0204,0.0151,0.0116,0.0105,0.0108,0.0084,0.0056,0.009,0.0073,0.0073,0.0074,0.0037,0.0034,0.0067,0.0067,0.0067,0.0066,0,0.0307,0.0325,0.0334,0.0347,0.0348,0.0364,0.0344,0.0337,0.0316,0.0298,0.0275,0.022,0.0191,0.017,0.0144,0.0133,0.0109,0.0083,0.0064,0.0081,0.0041,0.0036,0.0072,0.0071,0.007,0.0069,0,0,0.0339,0.0361,0.0366,0.0388,0.039,0.0399,0.0406,0.0409,0.0422,0.0373,0.0379,0.0323,0.0287,0.0266,0.022,0.0184,0.0156,0.0143,0.0139,0.0117,0.0073,0.0056,0.0048,0.0127,0.0126,0.0126,0.0044,0,0.0382,0.0434,0.0431,0.0482,0.0511,0.0489,0.0502,0.0495,0.0479,0.0472,0.0404,0.039,0.0325,0.0313,0.0266,0.0188,0.0148,0.0181,0.0052,0.0048,0.0039,0.0044,0.0075,0.0004,0.0039,0.0038,0.0038,0,0.0431,0.0464,0.0522,0.0562,0.0571,0.0589,0.0614,0.0625,0.0602,0.0587,0.0553,0.0498,0.0442,0.0381,0.0252,0.0277,0.0186,0.0115,0.011,0.007,0.0023,-0.0009,-0.0006,0.0029,0.003,0.0031,0.0031,0,0.0478,0.0529,0.0583,0.0597,0.0629,0.0645,0.0661,0.066,0.0692,0.0666,0.0678,0.0588,0.0554,0.0427,0.0277,0.0265,0.0132,0.0092,-0.0012,-0.0014,-0.0025,-0.0027,0.0001,0.0001,0.0001,0.0002,0.0002,0,0.0534,0.0576,0.0609,0.0638,0.0705,0.0702,0.077,0.0766,0.0788,0.0839,0.0745,0.0756,0.0565,0.0463,0.0311,0.0143,0.0153,0.0002,-0.0034,-0.0001,-0.0,-0.0007,-0.0007,-0.0002,-0.0001,-0.0,0.0,0,0.058,0.0599,0.0666,0.0711,0.073,0.0779,0.0856,0.0909,0.0909,0.097,0.0967,0.0886,0.075,0.0552,0.0347,0.0201,0.0032,-0.0032,0.0022,-0.0006,-0.01,-0.0095,-0.0159,-0.016,-0.0161,-0.0162,-0.0163,0,0.0608,0.0647,0.0724,0.0772,0.0795,0.0872,0.093,0.0967,0.1039,0.1057,0.1096,0.0983,0.0928,0.0619,0.0339,0.0068,0.0029,-0.0086,-0.0109,-0.0086,-0.0115,-0.0109,-0.0103,-0.0102,-0.0102,-0.0102,-0.0102,0,0.0666,0.0689,0.0746,0.0848,0.0919,0.1019,0.1106,0.1182,0.1229,0.1272,0.1306,0.126,0.0968,0.0696,0.0319,0.0143,-0.0044,-0.0098,-0.0088,-0.0061,-0.0038,-0.0064,-0.006,-0.0104,-0.0104,-0.0103,-0.0103,-0.0103,0.0706,0.0759,0.0832,0.0931,0.1025,0.1147,0.1236,0.1336,0.1448,0.1516,0.1467,0.14,0.1088,0.0613,0.0283,-0.0062,-0.0044,-0.0166,-0.0163,-0.0161,-0.0134,-0.0114,-0.0189,-0.019,-0.019,-0.019,-0.019,0,0.076,0.0818,0.0911,0.103,0.1142,0.1184,0.1343,0.1433,0.1565,0.1618,0.164,0.1343,0.1031,0.0665,0.015,-0.015,-0.0164,-0.0243,-0.0201,-0.0197,-0.0194,-0.0168,-0.0233,-0.0234,-0.0235,-0.0236,0,0,0.0788,0.0881,0.0928,0.1106,0.1196,0.1351,0.1446,0.1571,0.1651,0.1703,0.1666,0.1597,0.1146,0.0765,0.0352,0.0049,0.0001,0.0001,0.0072,0.0176,0.0182,-0.011,-0.006,0,0,0,0,0]}],[{"header":{"parameterUnit":"m.s-1","parameterCategory":2,"la1":30.2991,"la2":30.254,"lo1":-89.0895,"lo2":-89.0444,"dy":0.0017,"dx":0.0017,"nx":28,"ny":28,"refTime":"2024-02-19T09:00:00:Z","depth":"4","parameterNumber":2,"parameterNumberName":"U-component_of_CURRENTS"},"data":[0,0,0,0,0,0,0,0,0,0,0,0,0,0,0,0,0,0,0,0,0,0,0,0,0,0,0,0,0,0,0,0,0,0,0,0,0,0,0,0,0,0,0,0,0,0,0,0,0,0,0,0,0,0,0,0,0,0,0.1885,0.1886,0,0.1948,0.1948,0.1949,0.2005,0.2006,0.2007,0.2007,0.2087,0.2088,0.209,0,0,0,0,0,0,0,0,0,0,0,0,0,0.1803,0.1804,0.1885,0.1886,0.1887,0.1948,0.1948,0.1949,0.2005,0.2006,0.2007,0.2008,0.2087,0.2088,0.209,0,0,0,0,0,0,0,0,0,0,0,0,0,0.1848,0.1805,0.1885,0.1923,0.1928,0.1948,0.1948,0.1949,0.2005,0.2006,0.2007,0.2008,0.2086,0.2088,0.209,0.2079,0,0,0.2096,0.2097,0,0,0,0,0,0,0,0,0.1846,0.1851,0.1917,0.1921,0.1926,0.1971,0.1949,0.1994,0.2004,0.1974,0.2007,0.2009,0.205,0.2055,0.2062,0.2083,0.2086,0.2097,0.2098,0.2099,0.2099,0,0,0,0,0,0,0,0.1842,0.1849,0.1909,0.1918,0.1923,0.1934,0.1941,0.1957,0.2004,0.1977,0.1981,0.199,0.2052,0.206,0.2064,0.2087,0.2097,0.2098,0.21,0.21,0.2223,0.2225,0,0,0,0,0,0,0.1837,0.1846,0.1907,0.1911,0.1889,0.1934,0.1943,0.1954,0.2003,0.2012,0.1989,0.1992,0.2056,0.2062,0.2067,0.2162,0.2099,0.2101,0.2102,0.2221,0.2223,0.2225,0,0,0,0,0,0,0.1835,0.1842,0.1904,0.188,0.1889,0.1935,0.1947,0.1955,0.2004,0.2013,0.2022,0.2035,0.2057,0.2064,0.2121,0.2162,0.2102,0.2104,0.2218,0.2222,0.2224,0.2284,0,0,0,0,0,0,0.1832,0.1841,0.1866,0.188,0.1891,0.1942,0.1946,0.1955,0.2005,0.2012,0.2054,0.206,0.2058,0.2118,0.2123,0.2163,0.2105,0.2216,0.222,0.2223,0.228,0.2289,0.2297,0,0,0,0,0,0.1829,0.185,0.1867,0.1876,0.1918,0.1944,0.1951,0.1985,0.2007,0.2033,0.2068,0.2061,0.2146,0.2121,0.2127,0.2169,0.2214,0.2219,0.2223,0.2276,0.2287,0.2297,0,0,0,0,0,0,0.1829,0.1859,0.1877,0.1909,0.1939,0.1954,0.1987,0.2008,0.2055,0.2076,0.2084,0.2092,0.2159,0.2157,0.2129,0.2216,0.218,0.2186,0.2219,0.2229,0.2238,0.2245,0.2107,0,0,0,0,0,0.1839,0.1868,0.1893,0.1924,0.1943,0.1974,0.1998,0.2022,0.2054,0.2078,0.2107,0.2142,0.2174,0.2197,0.2223,0.2266,0.2268,0.2299,0.2307,0.2314,0.2326,0.2361,0.2374,0.224,0.224,0.224,0,0,0.1849,0.187,0.1889,0.1928,0.1956,0.1987,0.1993,0.2041,0.2079,0.2078,0.2153,0.2177,0.2194,0.2248,0.2277,0.2255,0.2355,0.232,0.2326,0.2334,0.2367,0.238,0.2391,0.2243,0.2243,0.2242,0,0,0.1866,0.1904,0.193,0.1959,0.2009,0.2026,0.2049,0.2092,0.213,0.2188,0.2206,0.2258,0.2302,0.2325,0.2338,0.241,0.2402,0.2425,0.2472,0.2506,0.2517,0.2527,0.2548,0.2559,0.2425,0.2425,0.2425,0,0.1881,0.1914,0.1943,0.1974,0.2007,0.2048,0.2085,0.2123,0.2182,0.2216,0.2226,0.2318,0.2337,0.2398,0.2429,0.243,0.2445,0.2428,0.2516,0.2526,0.2535,0.2554,0.2566,0.2429,0.2428,0.2428,0.2428,0,0.1903,0.1948,0.1969,0.2023,0.2061,0.2103,0.2151,0.2204,0.2254,0.2286,0.2374,0.2405,0.2457,0.2475,0.2476,0.2555,0.2545,0.2524,0.2486,0.2551,0.2568,0.2579,0.2434,0.2432,0.2431,0.2431,0,0,0.1885,0.1969,0.1981,0.2013,0.2094,0.2116,0.2197,0.2262,0.2318,0.2383,0.2453,0.2519,0.2548,0.2567,0.2584,0.2617,0.2695,0.2608,0.2608,0.2622,0.2773,0.2601,0.2596,0.2693,0.2695,0.2697,0.276,0,0.1899,0.1955,0.2004,0.207,0.2101,0.2173,0.2236,0.2306,0.2377,0.2454,0.2507,0.2583,0.2579,0.2624,0.2659,0.2694,0.2727,0.268,0.2714,0.2715,0.2548,0.2604,0.2704,0.2768,0.277,0.2772,0.2773,0,0.1896,0.1936,0.2004,0.2088,0.2112,0.2168,0.2277,0.2342,0.2456,0.2516,0.2601,0.2648,0.2736,0.2715,0.2801,0.2776,0.2788,0.2799,0.2801,0.2626,0.2562,0.2689,0.2792,0.2791,0.2789,0.2788,0.2787,0,0.1839,0.193,0.1986,0.2017,0.2122,0.2181,0.2249,0.2366,0.2437,0.2576,0.2641,0.2734,0.2802,0.2838,0.2873,0.2854,0.2946,0.2911,0.2764,0.2752,0.2861,0.285,0.2965,0.2965,0.2964,0.2964,0.2964,0,0.1809,0.1854,0.197,0.1996,0.2071,0.216,0.2263,0.2347,0.2484,0.2559,0.2678,0.2741,0.2841,0.2899,0.2907,0.2866,0.2974,0.2783,0.2759,0.2885,0.2876,0.2868,0.2856,0.2967,0.2966,0.2966,0.2965,0,0.1735,0.1814,0.1879,0.2002,0.2049,0.2106,0.2267,0.2329,0.2477,0.2586,0.2639,0.2781,0.2848,0.2914,0.2979,0.2893,0.2882,0.284,0.2985,0.2966,0.2658,0.2649,0.2675,0.2669,0.2665,0.2661,0.2657,0,0.1697,0.1727,0.1869,0.1914,0.1983,0.2088,0.2156,0.2314,0.2384,0.2576,0.2606,0.274,0.2808,0.2757,0.2842,0.284,0.2805,0.2778,0.2703,0.2656,0.2631,0.2629,0.2626,0.265,0.2649,0.2647,0.2646,0,0.1625,0.1699,0.1754,0.1848,0.1931,0.2003,0.2116,0.215,0.2318,0.2473,0.251,0.2541,0.2609,0.2642,0.2665,0.2657,0.2781,0.2729,0.2737,0.2666,0.2626,0.2605,0.2608,0.263,0.2632,0.2634,0.2635,0,0.158,0.1601,0.1689,0.1755,0.1849,0.1878,0.1955,0.202,0.2102,0.2306,0.2311,0.2443,0.2577,0.2548,0.2568,0.2551,0.2506,0.241,0.2434,0.2453,0.235,0.2264,0.2144,0,0,0,0,0,0.1518,0.1525,0.1582,0.1637,0.1723,0.1775,0.1903,0.1982,0.2142,0.2108,0.2203,0.225,0.2276,0.235,0.2287,0.2477,0.2522,0.2392,0.2425,0.254,0.2559,0.2457,0,0,0,0,0,0,0.1472,0.1522,0.1537,0.1522,0.1537,0.161,0.1681,0.1793,0.1786,0.1956,0.1984,0.2112,0.2177,0.2285,0.2241,0.2264,0.2237,0.2484,0.2478,0.253,0.2547,0.2562,0.2464,0,0,0,0,0]},{"header":{"parameterUnit":"m.s-1","parameterCategory":2,"la1":30.2991,"la2":30.254,"lo1":-89.0895,"lo2":-89.0444,"dy":0.0017,"dx":0.0017,"nx":28,"ny":28,"refTime":"2024-02-19T09:00:00:Z","depth":"4","parameterNumber":3,"parameterNumberName":"V-component_of_CURRENTS"},"data":[0,0,0,0,0,0,0,0,0,0,0,0,0,0,0,0,0,0,0,0,0,0,0,0,0,0,0,0,0,0,0,0,0,0,0,0,0,0,0,0,0,0,0,0,0,0,0,0,0,0,0,0,0,0,0,0,0,0,0.0192,0.0192,0,0.0162,0.0162,0.0161,0.0139,0.0139,0.0139,0.0139,0.0093,0.0092,0.0091,0,0,0,0,0,0,0,0,0,0,0,0,0,0.0194,0.0194,0.0192,0.0192,0.0192,0.0162,0.0162,0.0161,0.0139,0.0139,0.0139,0.0139,0.0093,0.0092,0.0091,0,0,0,0,0,0,0,0,0,0,0,0,0,0.018,0.0194,0.0192,0.0178,0.0176,0.0162,0.0162,0.0161,0.0139,0.0139,0.0139,0.0139,0.0094,0.0092,0.009,0.0082,0,0,0.0085,0.0084,0,0,0,0,0,0,0,0,0.0181,0.018,0.018,0.0179,0.0177,0.0155,0.0145,0.0134,0.0139,0.0152,0.0139,0.0138,0.0113,0.011,0.0103,0.008,0.0078,0.0085,0.0084,0.0083,0.0083,0,0,0,0,0,0,0,0.0182,0.0181,0.0179,0.018,0.0178,0.016,0.0159,0.0143,0.0132,0.0151,0.0149,0.0148,0.0112,0.0105,0.0102,0.0078,0.0085,0.0084,0.0082,0.0082,0.0045,0.0045,0,0,0,0,0,0,0.019,0.0182,0.018,0.0178,0.018,0.0161,0.0159,0.0161,0.0133,0.0129,0.0148,0.0147,0.0108,0.0104,0.01,0.0102,0.0083,0.0082,0.0081,0.0045,0.0045,0.0045,0,0,0,0,0,0,0.0191,0.0191,0.0181,0.018,0.0178,0.0161,0.0164,0.0161,0.0158,0.0131,0.0127,0.015,0.0107,0.0102,0.0092,0.01,0.0081,0.0079,0.0045,0.0045,0.0045,0.0098,0,0,0,0,0,0,0.0191,0.0191,0.0198,0.0181,0.0178,0.018,0.0164,0.016,0.0158,0.0156,0.0131,0.0126,0.0107,0.0095,0.009,0.0097,0.0078,0.0045,0.0045,0.0045,0.0096,0.01,0.0103,0,0,0,0,0,0.0191,0.0202,0.0198,0.0198,0.0188,0.018,0.0177,0.0164,0.0158,0.016,0.0143,0.0127,0.0092,0.0093,0.0088,0.0095,0.0045,0.0045,0.0045,0.0095,0.0099,0.0103,0,0,0,0,0,0,0.0206,0.02,0.0196,0.0204,0.0196,0.0177,0.0179,0.0169,0.0157,0.0158,0.013,0.0125,0.0117,0.0097,0.01,0.0083,0.0065,0.0064,0.0104,0.0108,0.0111,0.013,0.0077,0,0,0,0,0,0.0213,0.022,0.0209,0.0216,0.0214,0.0198,0.0194,0.0187,0.0173,0.0168,0.0149,0.0128,0.0112,0.0104,0.0086,0.0079,0.0053,0.0078,0.0082,0.0085,0.0095,0.0058,0.0059,0.0045,0.0045,0.0045,0,0,0.0221,0.0219,0.0223,0.022,0.0212,0.022,0.0195,0.0196,0.0202,0.0165,0.0165,0.0141,0.0113,0.0105,0.0099,0.0091,0.0073,0.0085,0.0088,0.0097,0.0058,0.0059,0.0061,0.0046,0.0045,0.0045,0,0,0.0242,0.0239,0.0253,0.025,0.0246,0.0239,0.0242,0.0227,0.022,0.0216,0.019,0.0172,0.0149,0.0129,0.0116,0.0126,0.0093,0.0119,0.0153,0.0116,0.0118,0.0118,0.0084,0.0081,0.0121,0.0121,0.0121,0,0.0251,0.027,0.0255,0.0267,0.0274,0.0252,0.0271,0.0259,0.0243,0.0241,0.0224,0.0187,0.0161,0.0151,0.0154,0.0136,0.011,0.0142,0.0122,0.0122,0.0122,0.0087,0.0083,0.0124,0.0123,0.0123,0.0123,0,0.0281,0.0298,0.0306,0.0318,0.0321,0.0334,0.0321,0.0319,0.0307,0.0295,0.028,0.0238,0.0218,0.0201,0.0183,0.0171,0.0152,0.0131,0.0115,0.0126,0.0088,0.0084,0.0127,0.0126,0.0126,0.0125,0,0,0.0301,0.0324,0.0329,0.0349,0.0353,0.0361,0.037,0.0374,0.0386,0.0352,0.0358,0.0317,0.0292,0.0275,0.0239,0.0207,0.0179,0.0176,0.0173,0.015,0.0101,0.0086,0.0078,0.0155,0.0155,0.0154,0.0075,0,0.0333,0.0374,0.0375,0.0418,0.0441,0.043,0.0443,0.0441,0.0431,0.0428,0.0375,0.0367,0.032,0.0313,0.0272,0.0206,0.0169,0.0203,0.0088,0.0084,0.0075,0.0073,0.0153,0.0071,0.007,0.0069,0.0068,0,0.0365,0.0393,0.0442,0.0479,0.0487,0.0507,0.0532,0.0543,0.0528,0.0518,0.0492,0.0451,0.0404,0.036,0.0247,0.0272,0.0197,0.0137,0.0131,0.0098,0.006,0.0056,0.0059,0.0059,0.006,0.0061,0.0061,0,0.0393,0.0439,0.0485,0.0498,0.0532,0.0551,0.057,0.0573,0.0599,0.0581,0.0591,0.0518,0.0489,0.0384,0.0258,0.0254,0.0129,0.0103,0.0015,0.0013,0.0028,0.0028,0.0023,0.0023,0.0023,0.0024,0.0024,0,0.0427,0.0465,0.0505,0.0529,0.059,0.0595,0.0655,0.0656,0.0677,0.0713,0.0645,0.0643,0.0494,0.0403,0.028,0.0135,0.014,0.0024,-0.0008,0.005,0.0054,0.0024,0.0025,0.0021,0.0021,0.0022,0.0022,0,0.045,0.0475,0.0534,0.0583,0.0606,0.065,0.0725,0.0766,0.0773,0.0816,0.0815,0.0739,0.0614,0.0457,0.0281,0.0172,0.0029,-0.0025,0.0055,0.0028,-0.0069,-0.0065,-0.013,-0.0131,-0.0132,-0.0133,-0.0133,0,0.0463,0.0496,0.0577,0.0621,0.0648,0.0721,0.0774,0.0813,0.0864,0.0872,0.0892,0.0791,0.0715,0.0462,0.0285,0.0043,0.0005,-0.0072,-0.0077,-0.006,-0.0085,-0.0078,-0.0072,-0.0135,-0.0135,-0.0135,-0.0136,0,0.0491,0.0522,0.0572,0.0666,0.0733,0.082,0.0896,0.0939,0.098,0.0988,0.0956,0.0821,0.0676,0.0467,0.0277,0.0103,-0.0024,-0.0083,-0.0083,-0.0088,-0.0067,-0.0089,-0.0082,-0.0139,-0.0139,-0.0138,-0.0138,0,0.0512,0.0553,0.0621,0.0705,0.0798,0.0886,0.0926,0.0978,0.1025,0.1027,0.1012,0.0851,0.0761,0.0497,0.0325,0.0149,0.0098,0.0035,0.0029,0.003,0.0093,0.0144,0.0114,0,0,0,0,0,0.053,0.0576,0.0653,0.0746,0.0843,0.09,0.0995,0.1028,0.1066,0.1052,0.1036,0.0899,0.0637,0.0529,0.035,0.0291,0.0059,0.0073,-0.0018,-0.0158,-0.0154,-0.0109,0,0,0,0,0,0,0.0539,0.0612,0.0651,0.077,0.0838,0.0949,0.1013,0.1037,0.1034,0.1036,0.0905,0.0844,0.0595,0.0738,0.0342,0.0289,0.0203,-0.0044,-0.0048,-0.0161,-0.0157,-0.0154,-0.0106,0,0,0,0,0]}]]